Avoca, PA

10:20 AM EDT on May 22, 2018 (GMT -0400)
Wilkes-Barre-Scranton International

Weather History for KAVP - August, 2014

Change the Weather History Date:

Friday, August 22, 2014

  Actual Average Record
Temperature  
Mean Temperature 70 °F 69 °F  
Max Temperature 74 °F 79 °F 98 °F (1916)
Min Temperature 66 °F 59 °F 42 °F (1982)
Degree Days  
Heating Degree Days 0 1  
Month to date heating degree days 7 5  
Since 1 June heating degree days 20 67  
Since 1 July heating degree days 9 13  
Cooling Degree Days 5 5  
Month to date cooling degree days 114 125  
Year to date cooling degree days 549 485  
Since 1 June cooling degree days 508 448  
Growing Degree Days 20 (Base 50)    
Moisture  
Dew Point 64 °F    
Average Humidity 83    
Maximum Humidity 93    
Minimum Humidity 73    
Precipitation  
Precipitation 0.82 in 0.11 in 2.80 in (1937)
Month to date precipitation 3.13 2.48  
Year to date precipitation 20.49 24.10  
Sea Level Pressure  
Sea Level Pressure 30.00 in    
Wind  
Wind Speed 4 mph (ESE)    
Max Wind Speed 12 mph    
Max Gust Speed 21 mph    
Visibility 8 miles    
Events Rain , Thunderstorm    
T = Trace of Precipitation, MM = Missing Value Source: NWS Daily Summary

Daily Weather History Graph

Daily Weather History Graph

Search for Another Location

Airport or City:

Astronomy

Aug. 22, 2014 Rise Set
Actual Time 6:19 AM EDT 7:51 PM EDT
Civil Twilight 5:49 AM EDT 8:20 PM EDT
Nautical Twilight 5:14 AM EDT 8:55 PM EDT
Astronomical Twilight 4:37 AM EDT 9:32 PM EDT
Moon 3:38 AM EDT 5:59 PM EDT
Length of Visible Light 14h 30m
Length of Day
13h 32m
Waning Crescent, 8% of the Moon is Illuminated
Aug 22
Waning Crescent
Aug 25
New
Sep 2
First Quarter
Sep 8
Full
Sep 15
Last Quarter

Hourly Weather History & Observations

Time (EDT) Temp. Dew Point Humidity Pressure Visibility Wind Dir Wind Speed Gust Speed Precip Events Conditions
12:47 AM 69.8 °F 64.4 °F 83% 30.00 in 10.0 mi NE 5.8 mph - 0.00 in Rain Light Rain
12:54 AM 70.0 °F 64.0 °F 81% 29.98 in 10.0 mi Calm Calm - 0.00 in Rain Light Rain
1:03 AM 69.8 °F 64.4 °F 83% 30.01 in 1.5 mi Variable 3.5 mph - N/A Rain Heavy Rain
1:06 AM 69.8 °F 64.4 °F 83% 30.01 in 1.0 mi Calm Calm - 0.04 in Rain , Thunderstorm Heavy Thunderstorms and Rain
1:46 AM 68.0 °F 66.2 °F 94% 30.00 in 2.5 mi Calm Calm - 0.68 in Rain , Thunderstorm Thunderstorms and Rain
1:48 AM 68.0 °F 66.2 °F 94% 30.00 in 3.0 mi Calm Calm - 0.69 in Rain , Thunderstorm Light Thunderstorms and Rain
1:54 AM 69.1 °F 66.0 °F 90% 29.97 in 6.0 mi Calm Calm - 0.69 in Rain , Thunderstorm Light Thunderstorms and Rain
1:57 AM 69.8 °F 66.2 °F 88% 30.00 in 7.0 mi Calm Calm - 0.00 in Rain Light Rain
2:54 AM 69.1 °F 64.9 °F 87% 29.98 in 10.0 mi ENE 4.6 mph - 0.00 in   Overcast
3:54 AM 69.1 °F 64.9 °F 87% 29.97 in 9.0 mi Calm Calm - N/A   Overcast
4:25 AM 68.0 °F 64.4 °F 88% 30.00 in 10.0 mi ESE 3.5 mph - N/A   Overcast
4:54 AM 66.9 °F 64.0 °F 90% 29.97 in 10.0 mi East 4.6 mph - N/A   Mostly Cloudy
5:14 AM 66.2 °F 64.4 °F 94% 30.00 in 10.0 mi East 4.6 mph - N/A   Overcast
5:54 AM 66.9 °F 63.0 °F 87% 29.98 in 10.0 mi ESE 4.6 mph - N/A   Overcast
6:54 AM 66.9 °F 63.0 °F 87% 29.99 in 10.0 mi ESE 3.5 mph - N/A   Overcast
7:26 AM 66.2 °F 62.6 °F 88% 30.01 in 10.0 mi East 4.6 mph - N/A   Mostly Cloudy
7:54 AM 68.0 °F 63.0 °F 84% 30.00 in 10.0 mi ESE 3.5 mph - N/A   Mostly Cloudy
8:10 AM 68.0 °F 62.6 °F 83% 30.02 in 10.0 mi East 4.6 mph - N/A   Overcast
8:54 AM 68.0 °F 63.0 °F 84% 30.01 in 10.0 mi ESE 4.6 mph - N/A   Overcast
9:54 AM 69.1 °F 64.0 °F 84% 30.03 in 10.0 mi East 3.5 mph - N/A   Overcast
10:54 AM 72.0 °F 63.0 °F 73% 30.03 in 10.0 mi WSW 3.5 mph - N/A   Overcast
11:54 AM 73.9 °F 64.0 °F 71% 30.01 in 10.0 mi Variable 3.5 mph - N/A   Overcast
12:54 PM 73.9 °F 64.9 °F 73% 30.00 in 10.0 mi East 5.8 mph - N/A   Mostly Cloudy
1:54 PM 73.0 °F 64.9 °F 76% 30.00 in 10.0 mi SE 5.8 mph - N/A   Overcast
2:51 PM 69.8 °F 64.4 °F 83% 30.02 in 1.8 mi SE 5.8 mph - 0.07 in Rain Heavy Rain
2:52 PM 70.0 °F 64.9 °F 84% 30.00 in 1.8 mi SE 5.8 mph - 0.08 in Rain Heavy Rain
3:54 PM 72.0 °F 66.9 °F 84% 29.97 in 10.0 mi ESE 5.8 mph - 0.04 in   Mostly Cloudy
4:54 PM 73.0 °F 66.0 °F 79% 29.98 in 10.0 mi Variable 3.5 mph - N/A   Partly Cloudy
5:54 PM 73.0 °F 64.9 °F 76% 29.99 in 10.0 mi SE 4.6 mph - N/A   Overcast
6:54 PM 72.0 °F 64.0 °F 76% 29.99 in 10.0 mi ESE 4.6 mph - N/A   Overcast
7:54 PM 70.0 °F 64.0 °F 81% 30.00 in 10.0 mi SE 8.1 mph - N/A   Overcast
8:54 PM 70.0 °F 63.0 °F 78% 30.01 in 10.0 mi SE 10.4 mph - N/A   Overcast
9:54 PM 69.1 °F 62.1 °F 78% 30.01 in 10.0 mi ESE 8.1 mph - N/A   Overcast
10:54 PM 68.0 °F 63.0 °F 84% 30.03 in 6.0 mi Calm Calm - 0.01 in Rain Light Rain
11:12 PM 66.2 °F 62.6 °F 88% 30.05 in 5.0 mi Variable 6.9 mph - 0.00 in Rain Light Rain
11:21 PM 66.2 °F 62.6 °F 88% 30.04 in 6.0 mi ESE 8.1 mph - 0.00 in Rain Light Rain
11:54 PM 66.0 °F 60.1 °F 81% 30.04 in 10.0 mi Variable 3.5 mph - 0.00 in   Overcast